HST (20580 NORAD) Tracking and Keplerian Element Data

This shows tracking and keplerian element data for the satellite.

Feedback or suggestion? Click here.




ElementValue
Catalog20580
NameHST
Epoch Orbit58186
Epoch Day270.10230376
Epoch Year2022
RAAN215.0912
Inclination28.4695
Eccentricity0.000261
Argument of Perigee55.5754
Mean Anonmoly57.1567
Mean Motion15.10921774
Decay Rate2.817E-05
L11 20580U 90037B 22270.10230376 .00002817 00000+0 15407-3 0 9996
L22 20580 28.4695 215.0912 0002610 55.5754 57.1567 15.10921774581867

Live tracking and technical data element details for HST (NORAD 20580). HST can be tracked NOW for your location showing map with azimuth and elevation plus other details from your city location.

Track the satellite on the map from your city or location and see movement details for azimuth, elevation, latitude, longitude, range, height, and movement on the map or in text.







IsCatalogInMostPopularTable: catalog: 20580, numindb: 1189
Update: records affected: 1



GetName: 20580 HST

Hit Count: updated at: Wed, 05 Oct 2022 09:56:21 GMT